CAPE
58 40 20 31 9 8 4 16 16 19 268 244 124 68 213 314 311 298 298 317 289 124 117 163 342 307 373 402 376 436 611 751 847 978 906 1120 1217 1245 1235 987 812 1194 1111 1081
17 2 0 21 41 19 9 12 29 41 218 196 71 114 118 258 317 339 309 323 374 339 139 212 270 282 330 443 344 423 568 711 885 980 963 954 920 1162 1201 1140 867 1072 806 1010
0 0 0 0 38 32 32 1 2 11 59 202 78 32 143 179 131 217 304 317 399 497 535 298 252 282 294 378 325 397 571 710 854 882 804 765 1195 1362 1130 1040 1072 788 892 1201
0 0 0 0 0 1 41 0 0 3 17 20 37 44 45 52 332 281 304 324 401 466 535 560 399 271 309 301 383 480 640 753 708 649 722 860 862 1123 1464 1554 1153 1000 1434 1520
0 0 0 0 0 0 15 0 0 0 10 26 37 57 71 68 182 304 340 271 392 495 545 654 544 487 314 347 367 476 630 771 707 640 540 700 681 848 1109 1319 1284 1274 1663 1590
0 0 0 0 0 0 0 0 0 1 4 3 11 57 100 76 79 216 277 441 462 546 548 652 695 537 533 427 375 477 599 763 782 677 572 661 686 813 1091 1248 1383 1325 1199 1466
0 0 0 0 0 0 0 0 0 3 10 3 4 43 101 116 62 117 263 349 610 697 697 789 811 750 657 682 555 484 578 697 746 676 627 718 792 811 990 1256 1313 1291 934 1464
0 0 0 0 0 0 0 0 0 0 0 0 0 36 64 3 67 134 386 424 364 382 498 794 876 815 716 769 746 646 714 637 560 893 661 675 809 883 900 1135 1237 1137 876 1507
0 0 0 0 0 0 0 0 0 0 0 0 0 0 0 61 158 276 376 360 421 434 467 552 746 839 758 829 798 746 772 804 611 721 930 698 735 905 948 1039 1208 1223 1189 1187
0 0 0 0 0 0 0 0 0 0 0 0 0 0 0 19 204 375 491 450 281 332 424 398 566 677 806 854 821 769 738 714 794 641 785 981 850 956 979 1014 1090 1224 1270 1365
0 0 0 0 0 0 0 0 0 0 0 0 0 0 0 26 387 733 770 800 746 577 417 411 480 836 960 895 857 857 859 790 599 461 618 835 993 1012 1224 1301 1381 1477 1428 1464
0 0 0 0 0 0 0 0 0 0 0 0 0 0 71 233 529 707 729 852 830 719 697 479 621 742 872 1046 1008 974 927 835 347 10 738 801 945 1117 1252 1366 1398 1694 1737 1659
0 0 0 0 0 0 0 0 0 0 0 0 0 0 355 314 646 674 630 928 964 954 892 878 881 889 1032 1080 1055 1024 993 802 884 671 923 982 1067 1140 1207 1335 1517 1464 1690 1961
0 0 0 0 0 0 0 0 0 0 0 0 0 0 523 543 725 486 292 1169 1388 1417 1015 999 1007 1037 1090 1071 1118 1120 1082 940 932 958 1003 1116 1326 1446 1561 1598 1569 1673 1562 1547
0 0 0 0 1 71 70 0 0 0 0 0 0 128 742 643 330 430 876 1661 1898 1965 1729 1640 1496 1231 1187 1181 1203 1226 1338 1342 1212 1206 1187 1552 1735 1975 2097 2093 2041 2076 1984 1955
0 0 0 0 11 90 161 158 4 1 0 167 146 279 777 606 469 921 1706 2233 2339 2210 1940 1667 1745 1906 1860 1771 1762 1831 1923 1952 2013 2039 1978 2111 2115 2142 2219 2430 2532 2545 2525 2494
0 0 0 0 23 31 52 236 295 275 319 212 203 422 578 575 516 1067 1804 2449 1967 2089 2158 2088 2024 1934 1917 1888 1977 2274 2604 2571 2538 2559 2636 2675 2611 2501 2534 2532 2507 2552 2607 2569
0 0 0 0 4 0 153 417 479 441 471 480 592 707 656 749 501 465 1805 2285 2032 2073 2170 2050 2007 1913 1947 1950 2025 2162 2344 2551 2628 2735 2755 2881 2987 2963 2969 2951 2751 2660 2671 2706
0 0 0 0 0 24 309 410 472 575 644 625 722 823 751 690 621 602 1795 2005 1816 2293 2174 1929 1925 2036 2115 2094 2156 2393 2552 2529 2500 2698 2840 2911 2995 3102 3053 2935 2883 2916 2856 2690
0 0 0 14 23 61 218 375 489 403 459 609 487 953 788 697 679 782 1774 1992 1494 1184 1614 1788 2086 2286 2301 2442 2527 2448 2544 2721 2556 2541 2434 2592 2795 2918 2901 2940 2902 2930 2882 2897
0 0 0 9 32 16 246 447 387 275 238 590 471 1089 1165 776 582 503 515 1188 1138 791 755 1373 2321 2320 2381 2636 2645 1991 2400 2660 2587 2059 1791 1700 1773 2122 2320 2594 2712 2675 2680 2714
0 3 13 62 67 67 295 339 206 250 516 639 315 865 1281 682 382 950 1382 1301 1141 785 1521 1687 2275 1901 2041 2634 1883 1894 2050 2270 2359 1996 1101 766 965 1487 1993 1998 1867 1758 2023 2441
144 91 256 166 155 273 338 521 552 656 520 453 297 295 393 199 123 724 601 1220 1180 1033 1579 1683 1489 1189 1110 1763 1712 1858 1624 1384 1327 115 2 0 290 881 1631 2158 1913 1389 1299 1583
252 467 405 523 557 704 743 752 666 425 300 439 323 258 367 558 608 852 991 1232 1199 994 1130 1233 846 594 970 1363 1838 1552 629 104 40 11 3 25 163 707 1362 2050 2000 1717 1479 1662
455 528 428 548 579 661 712 665 648 640 528 373 312 406 638 526 630 812 1023 1108 1012 702 628 740 478 769 1100 1204 891 277 143 113 63 57 238 359 529 777 1306 1905 2185 1779 1552 1382
534 560 500 550 492 429 461 497 472 387 378 421 426 375 276 296 381 461 476 507 637 633 559 435 405 452 293 177 70 91 134 318 393 437 354 244 456 714 997 1457 1765 1778 1561 1116
CIN
-137 -157 -172 -114 -106 -149 -106 -103 -139 -125 -267 -239 -231 -209 -212 -265 -202 -166 -61 -55 -49 -203 -167 -183 -185 -154 -64 -63 -85 -60 -43 -55 -68 -79 -105 -77 -43 -72 -58 -26 -28 -106 -44 -21
-181 -204 0 -169 -132 -137 -152 -106 -95 -100 -290 -206 -165 -242 -263 -232 -289 -219 -207 -74 -43 -33 -195 -168 -142 -129 -140 -67 -77 -21 -52 -43 -70 -90 -113 -80 -42 -62 -44 -45 -59 -67 -29 -156
0 0 0 0 -152 -131 -127 -164 -79 -97 -260 -232 -180 -117 -268 -122 -158 -301 -224 -122 -67 -37 -29 -64 -141 -117 -91 -106 -265 -143 -57 -52 -100 -89 -118 -130 -151 -99 -61 -51 -70 -22 -32 -149
0 0 0 0 0 -36 -101 0 0 -108 -97 -150 -104 -81 -78 -144 -101 -442 -245 -182 -74 -60 -25 -23 -44 -111 -71 -66 -252 -202 -116 -90 -71 -70 -144 -163 -122 -104 -80 -37 -29 -167 -148 -56
0 0 0 0 0 0 -69 0 0 0 -86 -172 -121 -113 -38 -533 -345 -164 -418 -269 -101 -83 -22 -12 -29 -31 -54 -47 -272 -191 -163 -69 -73 -104 -194 -146 -153 -128 -91 -56 -39 -59 -42 -41
0 0 0 0 0 0 0 0 0 -49 -64 -142 -100 -109 -57 -71 -183 -204 -404 -375 -172 -88 -63 -27 -18 -33 -30 -53 -54 -38 -97 -22 -10 -111 -230 -151 -95 -153 -96 -57 -40 -37 -43 -67
0 0 0 0 0 0 0 0 0 -76 -161 -7 -68 -115 -89 -78 -55 -26 -75 -309 -232 -177 -117 -57 -25 -19 -20 -34 -49 -41 -42 -39 -21 -66 -223 -172 -130 -124 -113 -54 -41 -34 -128 -104
0 0 0 0 0 0 0 0 0 0 -17 0 0 -110 -65 -70 -291 -25 -66 -116 -53 -233 -177 -81 -50 -21 -25 -16 -33 -37 -37 -57 -40 -24 -123 -226 -156 -102 -145 -74 -49 -44 -140 -96
0 0 0 0 0 0 0 0 0 0 0 0 0 0 0 -276 -269 -129 -51 -18 -14 -25 -96 -145 -92 -41 -18 -16 -19 -31 -23 -33 -59 -35 -33 -161 -230 -125 -170 -116 -61 -37 -32 -97
0 0 0 0 0 0 0 0 0 0 0 0 0 0 0 -51 -161 -133 -224 -242 -68 -11 -19 -243 -91 -13 -15 -21 -24 -28 -22 -28 -30 -41 -41 -32 -241 -236 -177 -165 -110 -71 -40 -33
0 0 0 0 0 0 0 0 0 0 0 0 0 0 0 -324 -166 -178 -123 -94 -90 -124 -4 -7 -5 -2 -9 -19 -20 -16 -14 -20 -24 -278 -268 -49 -37 -185 -245 -200 -132 -65 -51 -44
0 0 0 0 0 0 0 0 0 0 0 0 0 0 -605 -599 -137 -95 -131 -140 -140 -134 -132 -314 -175 -8 -8 -5 -12 -14 -10 -7 -70 -30 -46 -54 -56 -49 -377 -317 -208 -109 -67 -58
0 0 0 0 0 0 0 0 0 0 0 0 0 0 -176 -581 -98 -54 -54 -108 -141 -95 -84 -53 -43 -31 -24 -11 -15 -11 -9 -12 -20 -59 -419 -461 -112 -154 -144 -378 -327 -248 -148 -72
0 0 0 0 0 0 0 0 0 0 0 0 0 0 -130 -192 -83 -139 -97 -330 -334 -406 -244 -65 -43 -38 -22 -15 -10 -10 -10 -12 -25 -43 -511 -489 -483 -453 -376 -361 -351 -329 -251 -199
0 0 0 0 -36 -116 -203 0 0 0 0 0 0 -187 -90 -115 -52 -59 -308 -251 -292 -357 -213 -237 -274 -65 -42 -31 -25 -38 -37 -43 -138 -129 -246 -419 -371 -295 -251 -276 -282 -278 -204 -168
0 0 0 0 -23 -67 -87 -223 -51 -7 0 -439 -222 -151 -66 -43 -230 -233 -181 -150 -129 -222 -395 -176 -209 -209 -172 -120 -114 -100 -115 -117 -104 -93 -78 -318 -271 -226 -221 -203 -182 -162 -146 -131
0 0 0 0 -48 -27 -29 -82 -213 -338 -420 -345 -228 -166 -62 -132 -65 -138 -121 -81 -109 -160 -193 -185 -133 -111 -138 -175 -176 -174 -138 -107 -96 -99 -100 -80 -85 -108 -137 -144 -155 -160 -146 -130
0 0 0 0 -25 0 -54 -93 -192 -348 -334 -311 -250 -264 -333 -79 -54 -17 -161 -72 -65 -127 -196 -183 -171 -158 -170 -160 -179 -159 -123 -114 -113 -98 -86 -88 -63 -64 -70 -61 -74 -134 -115 -99
0 0 0 0 0 -65 -55 -93 -78 -123 -203 -166 -216 -246 -271 -54 -29 -246 -156 -75 -48 -92 -145 -185 -189 -173 -115 -115 -105 -72 -51 -49 -49 -43 -27 -35 -45 -48 -46 -45 -50 -43 -44 -51
0 0 0 -35 -45 -62 -43 -79 -93 -107 -93 -133 -96 -201 -213 -37 -106 -88 -100 -73 -53 -34 -141 -181 -156 -128 -116 -108 -82 -84 -72 -42 -45 -46 -77 -59 -65 -48 -54 -53 -44 -40 -37 -37
0 0 0 -109 -98 -67 -54 -65 -78 -27 -29 -121 -91 -95 -98 -74 -23 -100 -304 -97 -44 -92 -222 -160 -137 -203 -158 -120 -130 -146 -117 -61 -63 -100 -156 -188 -121 -95 -75 -53 -36 -29 -31 -27
0 -30 -133 -89 -65 -86 -60 -132 -32 -115 -164 -150 -142 -56 -53 -23 -127 -116 -73 -69 -35 -34 -234 -219 -171 -153 -141 -151 -149 -168 -120 -90 -88 -88 -184 -340 -269 -106 -54 -57 -74 -87 -63 -21
-193 -128 -117 -88 -122 -144 -143 -119 -140 -130 -75 -168 -115 -112 -64 -70 -34 -62 -169 -59 -26 -28 -138 -125 -139 -125 -111 -133 -147 -106 -61 -131 -160 -391 -186 0 -333 -295 -91 -24 -30 -53 -85 -86
-112 -109 -110 -108 -168 -169 -170 -108 -85 -58 -112 -60 -70 -61 -30 -20 -23 -46 -52 -38 -24 -17 -121 -95 -85 -342 -259 -199 -109 -31 -28 -180 -146 -201 -164 -337 -481 -285 -100 -27 -9 -23 -38 -44
-100 -58 -115 -109 -105 -105 -104 -93 -68 -58 -35 -63 -53 -44 -33 -38 -18 -28 -18 -18 -17 -28 -21 -68 -45 -156 -102 -85 -41 -63 -67 -91 -125 -212 -159 -122 -97 -244 -110 -32 -11 -27 -37 -41
-92 -86 -86 -102 -98 -94 -87 -64 -56 -52 -77 -57 -43 -50 -66 -94 -92 -52 -11 -9 -5 -11 -18 -16 -133 -93 -92 -77 -49 -48 -181 -155 -120 -111 -100 -153 -170 -214 -138 -60 -33 -21 -26 -42
Wind_Speed
nan nan nan nan nan nan nan nan nan nan 1 3 12 nan 15 16 13 18 22 15 14 16 17 18 16 12 11 11 9 10 8 8 6 1 3 3 5 5 3 3 1 2 1 5
nan nan nan nan nan nan nan nan nan nan 13 9 nan 9 11 12 23 26 27 22 21 15 10 10 13 12 13 14 14 12 14 9 8 4 3 3 2 3 2 4 2 1 4 4
nan nan nan nan nan nan nan nan nan nan nan 12 nan nan 8 13 8 15 18 23 16 19 15 11 14 16 16 15 16 16 16 12 9 5 5 8 7 6 6 7 7 2 4 10
nan nan nan nan nan nan nan nan nan nan nan nan nan nan nan nan 14 11 14 16 21 15 9 7 13 16 19 20 17 16 14 11 6 4 2 6 4 4 2 3 3 5 7 11
nan nan nan nan nan nan nan nan nan nan nan nan nan nan nan nan 11 11 8 18 19 15 14 13 14 18 21 16 16 15 11 10 8 8 6 4 4 5 5 5 8 7 7 10
nan nan nan nan nan nan nan nan nan nan nan nan nan nan 18 nan nan 9 6 13 16 15 19 16 12 8 10 10 12 8 7 7 6 9 9 10 6 6 6 5 6 6 6 8
nan nan nan nan nan nan nan nan nan nan nan nan nan nan 11 12 nan 7 4 15 17 11 14 19 20 16 11 12 12 10 12 8 8 8 9 10 11 10 10 6 3 5 3 6
nan nan nan nan nan nan nan nan nan nan nan nan nan nan nan nan nan 8 9 5 15 17 13 19 26 24 19 14 14 14 15 13 9 10 12 9 8 7 7 6 4 4 3 4
nan nan nan nan nan nan nan nan nan nan nan nan nan nan nan nan 10 16 11 5 10 16 17 21 18 23 24 15 16 17 15 14 13 9 10 9 5 7 8 8 4 4 1 3
nan nan nan nan nan nan nan nan nan nan nan nan nan nan nan nan 14 16 16 9 7 11 21 22 18 20 22 19 11 12 13 15 12 7 0 4 8 6 6 5 4 3 2 5
nan nan nan nan nan nan nan nan nan nan nan nan nan nan nan nan 9 4 7 3 4 9 13 22 13 17 21 9 8 12 12 15 20 20 6 2 3 6 7 6 3 2 5 6
nan nan nan nan nan nan nan nan nan nan nan nan nan nan nan 5 3 3 5 3 1 5 10 17 9 14 16 9 9 10 15 26 35 nan 9 5 3 6 9 10 8 7 7 9
nan nan nan nan nan nan nan nan nan nan nan nan nan nan 9 6 4 7 7 10 3 12 9 9 11 10 8 8 7 11 12 23 23 18 18 5 9 13 11 11 11 12 13 14
nan nan nan nan nan nan nan nan nan nan nan nan nan nan 6 4 4 5 7 5 11 7 9 15 18 10 9 11 9 9 10 17 18 16 12 11 7 10 12 15 16 17 18 18
nan nan nan nan nan nan nan nan nan nan nan nan nan 6 4 4 4 9 8 11 7 14 11 20 17 14 12 12 13 13 12 15 20 18 15 13 14 12 13 15 17 19 21 21
nan nan nan nan nan nan 18 18 nan nan nan 25 15 9 4 11 7 4 3 6 12 19 18 20 20 19 19 20 19 16 11 12 20 23 20 21 22 20 17 17 19 21 20 20
nan nan nan nan nan nan nan 14 10 8 10 20 8 4 6 10 8 10 8 10 13 20 18 22 25 20 21 25 27 24 20 18 18 21 22 23 23 22 23 22 23 22 23 23
nan nan nan nan nan nan 8 7 3 8 14 2 10 11 11 11 9 10 11 12 19 24 17 17 21 19 21 22 23 20 17 20 22 22 21 21 21 21 23 22 22 22 23 21
nan nan nan nan nan nan 16 10 7 4 11 12 13 11 18 14 12 8 13 22 20 17 6 10 16 20 20 22 24 23 20 22 23 23 19 18 19 18 20 21 23 26 25 21
nan nan nan nan nan nan 12 14 6 14 20 19 14 15 21 19 16 7 15 26 19 9 6 13 19 23 28 23 21 22 22 22 19 18 20 20 18 17 16 17 18 21 21 20
nan nan nan nan nan nan 12 15 10 14 6 17 22 23 25 19 14 13 21 24 18 17 18 18 22 26 27 26 25 19 22 22 21 19 18 19 22 20 19 18 21 21 20 20
nan nan nan nan nan nan 16 14 13 9 16 19 15 17 32 30 27 22 21 17 18 20 22 21 24 23 23 26 26 24 22 21 23 21 21 20 17 18 21 22 24 25 26 26
37 nan 26 23 18 19 18 16 19 23 18 13 19 18 11 14 20 14 16 19 19 20 18 20 19 20 20 27 28 27 20 23 24 23 nan nan 22 21 22 23 23 25 26 25
29 34 38 32 27 25 26 25 20 19 21 22 17 17 12 17 9 15 18 19 19 20 17 17 20 18 20 26 28 28 30 28 nan nan nan nan 25 25 25 29 30 29 28 27
28 34 33 32 26 27 27 26 27 30 30 30 23 18 17 17 21 24 19 15 16 20 23 24 24 23 26 26 27 29 30 28 nan nan 26 26 26 24 24 25 26 27 28 30
32 32 34 25 24 27 26 24 23 31 30 24 24 24 22 22 21 22 21 18 20 20 22 22 25 27 24 26 nan nan 25 25 23 23 26 28 27 26 26 27 27 29 27 30
Wind_Direction
nan nan nan nan nan nan nan nan nan nan 56 131 88 nan 25 10 5 6 15 15 32 50 63 41 24 14 14 15 2 22 31 17 341 153 251 228 173 179 170 231 247 140 197 344
nan nan nan nan nan nan nan nan nan nan 178 179 nan 89 60 28 26 18 9 12 25 37 20 38 27 5 7 18 31 19 34 21 21 36 247 248 222 147 229 250 219 221 273 334
nan nan nan nan nan nan nan nan nan nan nan 188 nan nan 71 51 37 25 36 27 26 18 21 23 12 9 15 13 26 32 32 26 19 0 256 230 231 216 221 213 203 188 335 347
nan nan nan nan nan nan nan nan nan nan nan nan nan nan nan nan 23 8 30 28 21 13 357 13 15 11 12 24 32 35 34 25 17 355 321 311 296 256 239 252 287 318 359 348
nan nan nan nan nan nan nan nan nan nan nan nan nan nan nan nan 12 22 25 31 22 19 346 352 2 12 15 357 27 36 29 41 25 17 21 332 278 272 263 262 290 332 357 6
nan nan nan nan nan nan nan nan nan nan nan nan nan nan 133 nan nan 60 2 11 39 10 7 348 351 337 356 345 332 1 16 9 27 12 26 24 6 302 287 312 347 35 34 17
nan nan nan nan nan nan nan nan nan nan nan nan nan nan 103 129 nan 62 109 34 33 351 356 352 336 337 342 345 345 335 342 350 342 12 10 26 38 31 30 7 4 27 44 9
nan nan nan nan nan nan nan nan nan nan nan nan nan nan nan nan nan 140 174 45 21 15 359 352 357 359 354 11 352 340 339 334 325 341 356 4 28 47 43 28 348 17 31 4
nan nan nan nan nan nan nan nan nan nan nan nan nan nan nan nan 184 181 198 23 19 19 12 353 337 350 355 355 4 1 344 337 336 355 334 337 11 29 31 32 34 121 292 347
nan nan nan nan nan nan nan nan nan nan nan nan nan nan nan nan 164 177 187 172 75 22 4 355 333 346 349 343 346 349 351 344 313 276 237 357 351 28 358 341 56 86 341 334
nan nan nan nan nan nan nan nan nan nan nan nan nan nan nan nan 167 159 119 84 71 27 6 325 287 317 325 311 329 334 328 299 253 222 143 126 46 13 358 346 332 304 299 328
nan nan nan nan nan nan nan nan nan nan nan nan nan nan nan 180 121 358 147 178 238 343 319 310 295 297 299 316 319 335 301 297 323 nan 81 38 350 1 2 15 353 312 315 316
nan nan nan nan nan nan nan nan nan nan nan nan nan nan 226 203 263 47 224 249 305 322 332 263 265 291 265 274 297 297 311 314 342 353 358 359 339 317 336 346 340 329 324 323
nan nan nan nan nan nan nan nan nan nan nan nan nan nan 181 268 94 49 131 103 49 16 328 285 273 256 218 235 249 256 257 287 309 327 336 330 318 295 316 319 318 317 319 318
nan nan nan nan nan nan nan nan nan nan nan nan nan 340 10 235 131 164 171 139 69 359 261 258 259 259 261 268 266 254 255 268 278 281 281 279 270 288 301 306 309 307 306 307
nan nan nan nan nan nan 249 239 nan nan nan 201 234 189 210 226 229 264 234 24 23 328 301 281 264 252 254 257 261 261 253 250 264 269 269 267 275 282 289 296 307 310 311 307
nan nan nan nan nan nan nan 236 278 268 190 233 203 226 223 231 263 305 332 325 341 304 294 287 280 284 289 286 286 281 283 288 287 284 283 283 279 284 289 296 299 302 301 296
nan nan nan nan nan nan 222 238 246 233 224 247 201 222 226 249 313 343 343 325 310 292 284 258 274 280 295 298 283 276 277 273 271 273 278 280 281 282 285 293 298 305 302 306
nan nan nan nan nan nan 220 262 248 217 194 240 250 257 252 278 280 271 312 317 314 301 281 284 282 300 298 301 300 296 288 280 275 269 263 266 275 275 278 281 287 292 297 307
nan nan nan nan nan nan 219 239 270 239 217 241 261 295 289 277 280 273 309 316 307 251 244 280 309 301 301 311 303 303 297 290 286 283 274 265 262 264 266 274 282 288 294 301
nan nan nan nan nan nan 223 238 241 247 331 303 298 297 286 270 280 292 298 318 291 289 294 308 310 304 304 306 300 301 296 297 298 300 286 271 259 259 265 265 267 270 275 280
nan nan nan nan nan nan 234 222 272 292 254 301 299 297 260 256 265 265 283 283 292 299 299 298 294 293 294 297 297 302 302 298 293 285 280 279 272 268 266 266 267 271 276 278
209 nan 222 232 226 224 221 238 241 272 284 298 308 328 295 271 269 264 281 279 297 304 295 278 284 285 286 294 294 298 300 295 294 292 nan nan 275 280 282 279 273 271 274 274
213 218 230 232 223 234 241 259 262 267 288 306 309 299 288 256 265 270 275 280 284 281 270 265 277 277 280 276 288 294 299 298 nan nan nan nan 278 275 275 276 277 276 275 274
220 224 234 231 238 254 247 259 269 273 275 282 269 270 287 262 244 263 285 287 288 273 264 264 271 267 271 276 282 281 279 283 nan nan 288 285 283 282 281 282 282 284 286 289
221 233 236 245 257 263 265 263 264 270 273 266 271 266 254 256 256 260 257 265 278 283 278 277 280 281 277 277 nan nan 286 293 295 285 281 284 285 284 283 282 283 295 293 282